Regional Weather Roundup
Issued by NWS

Home | Current Version | Previous Version | Text Only | Print | Product List | Glossary On
Versions: 1 2 3 4 5 6 7 8 9 10 11 12 13 14 15 16 17 18 19 20 21 22 23 24 25 26 27 28 29 30 31 32 33 34 35 36 37 38 39 40 41 42 43 44 45 46 47 48 49 50
000
ASUS43 KBIS 301710
RWRND

NORTH DAKOTA REGIONAL WEATHER ROUNDUP
NATIONAL WEATHER SERVICE BISMARCK ND
1200 PM CDT MON MAY 30 2016

NOTE: "FAIR" INDICATES FEW OR NO CLOUDS BELOW 12,000 FEET WITH NO
SIGNIFICANT WEATHER AND/OR OBSTRUCTIONS TO VISIBILITY.


NDZ001>003-009>011-017-301800-
NORTHWEST NORTH DAKOTA

CITY           SKY/WX    TMP DP  RH WIND       PRES   REMARKS
WILLISTON      LGT RAIN  57  49  74 SW8       29.95R
MINOT          CLOUDY    74  55  51 NE5       29.87F
MINOT AFB      CLOUDY    71  53  52 E5        29.86F
$$

NDZ018>021-031>035-040>046-301800-
SOUTHWEST NORTH DAKOTA

CITY           SKY/WX    TMP DP  RH WIND       PRES   REMARKS
BISMARCK       SUNNY     76  58  53 SE6       29.88S
DICKINSON      TSTM      52  50  93 W15       29.97R FOG
GARRISON         N/A     65  54  67 W12       29.90R
HETTINGER ARPT LGT RAIN  61  55  81 N9G24     29.89F
$$

NDZ004>008-012>016-024-026-027-054-301800-
NORTHEAST NORTH DAKOTA

CITY           SKY/WX    TMP DP  RH WIND       PRES   REMARKS
GRAND FORKS    MOSUNNY   76  55  48 SE12      29.89F
GRND FRKS AFB  SUNNY     77  52  41 S8        29.89F
DEVILS LAKE    SUNNY     75  54  47 S8        29.90S
$$

NDZ022-023-025-028>030-036>039-047>053-301800-
SOUTHEAST NORTH DAKOTA

CITY           SKY/WX    TMP DP  RH WIND       PRES   REMARKS
FARGO          SUNNY     82  50  32 VRB7      29.90F
JAMESTOWN      SUNNY     80  55  42 S8        29.88F
$$





USA.gov is the U.S. government's official web portal to all federal, state and local government web resources and services.